When you browse on this site, cookies collect data to enhance your experience and personalize the content and advertising you see.
Visit our Privacy Policy to learn more. By continuing to use the site, you agree to this use of cookies and data.
  • In Hungary
  • List of Countries
  • For 7 days
  • Water Temperature
  • Satellite Maps
  • Weather Map
  • News
  • Weather Widgets
  • user-avatar
    Login

    Hourly Weather Belozerka

    Today, 19 January, Saturday

    Time Temperature Precipitation Wind Pressure Humidity
    00:00 +3°C° 0 mm 4 mps 760 mmHg 90%
    01:00 +3°C° 0 mm 4 mps 760 mmHg 91%
    02:00 +3°C° 0 mm 4 mps 760 mmHg 92%
    03:00 +1°C° 0 mm 4 mps 760 mmHg 91%
    04:00 0°C° 0 mm 4 mps 760 mmHg 90%
    05:00 0°C° 0 mm 4 mps 760 mmHg 89%
    06:00 -1°C° 0 mm 4 mps 761 mmHg 89%
    07:00 -2°C° 0 mm 5 mps 761 mmHg 89%
    08:00 -3°C° 0 mm 6 mps 762 mmHg 89%
    09:00 -2°C° 0 mm 6 mps 763 mmHg 86%
    10:00 -1°C° 0 mm 6 mps 763 mmHg 83%
    11:00 +1°C° 0 mm 6 mps 764 mmHg 80%
    12:00 +1°C° 0 mm 6 mps 764 mmHg 77%
    13:00 +1°C° 0 mm 6 mps 765 mmHg 75%
    14:00 +1°C° 0 mm 5 mps 765 mmHg 72%
    15:00 -1°C° 0 mm 5 mps 766 mmHg 73%
    16:00 -2°C° 0 mm 5 mps 766 mmHg 74%
    17:00 -3°C° 0 mm 4 mps 766 mmHg 76%
    18:00 -3°C° 0 mm 4 mps 767 mmHg 76%
    19:00 -3°C° 0 mm 4 mps 767 mmHg 76%
    20:00 -4°C° 0 mm 4 mps 767 mmHg 76%
    21:00 -4°C° 0 mm 4 mps 768 mmHg 75%
    22:00 -4°C° 0 mm 4 mps 768 mmHg 75%
    23:00 -4°C° 0 mm 4 mps 768 mmHg 74%

    Tomorrow, 20 January, Sunday

    Time Temperature Precipitation Wind Pressure Humidity
    00:00 -4°C° 0 mm 4 mps 768 mmHg 74%
    01:00 -4°C° 0 mm 4 mps 768 mmHg 73%
    02:00 -4°C° 0 mm 4 mps 768 mmHg 73%
    03:00 -4°C° 0 mm 4 mps 768 mmHg 72%
    04:00 -4°C° 0 mm 4 mps 768 mmHg 71%
    05:00 -4°C° 0 mm 4 mps 767 mmHg 70%
    06:00 -4°C° 0 mm 4 mps 767 mmHg 69%
    07:00 -4°C° 0 mm 4 mps 767 mmHg 68%
    08:00 -4°C° 0 mm 4 mps 767 mmHg 67%
    09:00 -3°C° 0 mm 4 mps 767 mmHg 64%
    10:00 -3°C° 0 mm 4 mps 767 mmHg 62%
    11:00 -2°C° 0 mm 4 mps 767 mmHg 59%
    12:00 -1°C° 0 mm 4 mps 766 mmHg 61%
    13:00 -1°C° 0 mm 4 mps 766 mmHg 63%
    14:00 0°C° 0 mm 4 mps 765 mmHg 64%
    15:00 -1°C° 0 mm 4 mps 765 mmHg 69%
    16:00 -1°C° 0 mm 4 mps 765 mmHg 74%
    17:00 -2°C° 0 mm 4 mps 764 mmHg 79%
    18:00 -2°C° 0 mm 4 mps 764 mmHg 81%
    19:00 -2°C° 0 mm 4 mps 764 mmHg 83%
    20:00 -2°C° 0 mm 4 mps 764 mmHg 85%
    21:00 -1°C° 0.3 mm 4 mps 763 mmHg 86%
    22:00 -1°C° 0.3 mm 4 mps 763 mmHg 88%
    23:00 -1°C° 0.3 mm 4 mps 763 mmHg 89%

    Day after tomorrow, 21 January, Monday

    Time Temperature Precipitation Wind Pressure Humidity
    00:00 -1°C° 0.3 mm 4 mps 762 mmHg 90%
    01:00 -1°C° 0.3 mm 4 mps 762 mmHg 91%
    02:00 0°C° 0.3 mm 4 mps 761 mmHg 92%
    03:00 0°C° 1 mm 4 mps 761 mmHg 93%
    04:00 0°C° 1 mm 4 mps 761 mmHg 94%
    05:00 0°C° 1 mm 4 mps 760 mmHg 95%
    06:00 +1°C° 0.6 mm 3 mps 760 mmHg 96%
    07:00 +2°C° 0.6 mm 3 mps 760 mmHg 96%
    08:00 +2°C° 0.6 mm 3 mps 760 mmHg 97%
    09:00 +2°C° 1.2 mm 3 mps 760 mmHg 97%
    10:00 +2°C° 1.2 mm 3 mps 760 mmHg 97%
    11:00 +2°C° 1.2 mm 3 mps 760 mmHg 97%
    12:00 +1°C° 0.1 mm 4 mps 760 mmHg 94%
    13:00 0°C° 0.1 mm 5 mps 760 mmHg 92%
    14:00 -1°C° 0.1 mm 6 mps 760 mmHg 89%
    15:00 -1°C° 0 mm 6 mps 761 mmHg 89%
    16:00 -2°C° 0 mm 6 mps 761 mmHg 89%
    17:00 -2°C° 0 mm 6 mps 761 mmHg 88%
    18:00 -3°C° 0 mm 6 mps 762 mmHg 88%
    19:00 -3°C° 0 mm 6 mps 763 mmHg 87%
    20:00 -3°C° 0 mm 6 mps 763 mmHg 87%
    21:00 -3°C° 0 mm 6 mps 763 mmHg 86%
    22:00 -4°C° 0 mm 6 mps 764 mmHg 86%
    23:00 -4°C° 0 mm 5 mps 764 mmHg 86%

    22 January, Tuesday

    Time Temperature Precipitation Wind Pressure Humidity
    00:00 -4°C° 0 mm 5 mps 764 mmHg 86%
    01:00 -4°C° 0 mm 5 mps 765 mmHg 86%
    02:00 -4°C° 0 mm 4 mps 765 mmHg 85%
    03:00 -4°C° 0 mm 4 mps 765 mmHg 86%
    04:00 -4°C° 0 mm 4 mps 765 mmHg 86%
    05:00 -4°C° 0 mm 4 mps 764 mmHg 86%
    06:00 -5°C° 0 mm 3 mps 765 mmHg 86%
    07:00 -5°C° 0 mm 3 mps 765 mmHg 85%
    08:00 -5°C° 0 mm 3 mps 765 mmHg 85%
    09:00 -3°C° 0 mm 2 mps 765 mmHg 82%
    10:00 -3°C° 0 mm 2 mps 765 mmHg 80%
    11:00 -2°C° 0 mm 2 mps 765 mmHg 78%
    12:00 -2°C° 0 mm 2 mps 764 mmHg 77%
    13:00 +1°C° 0 mm 1 mps 764 mmHg 76%
    14:00 +1°C° 0 mm 1 mps 763 mmHg 75%
    15:00 +1°C° 0 mm 1 mps 763 mmHg 77%
    16:00 -1°C° 0 mm 2 mps 763 mmHg 80%
    17:00 -2°C° 0 mm 2 mps 762 mmHg 83%
    18:00 -1°C° 0 mm 2 mps 762 mmHg 84%
    19:00 -1°C° 0 mm 3 mps 762 mmHg 85%
    20:00 -1°C° 0 mm 3 mps 762 mmHg 87%
    21:00 -1°C° 0.1 mm 3 mps 761 mmHg 88%
    22:00 -1°C° 0.1 mm 3 mps 761 mmHg 89%
    23:00 -1°C° 0.1 mm 3 mps 761 mmHg 91%

    23 January, Wednesday

    Time Temperature Precipitation Wind Pressure Humidity
    00:00 -1°C° 0.2 mm 3 mps 760 mmHg 91%
    01:00 -2°C° 0.2 mm 4 mps 760 mmHg 92%
    02:00 -2°C° 0.2 mm 4 mps 759 mmHg 93%
    03:00 -2°C° 0.2 mm 4 mps 759 mmHg 93%
    04:00 -2°C° 0.2 mm 4 mps 758 mmHg 94%
    05:00 -2°C° 0.2 mm 4 mps 758 mmHg 94%
    06:00 -2°C° 0.2 mm 4 mps 758 mmHg 94%
    07:00 -1°C° 0.2 mm 5 mps 757 mmHg 94%
    08:00 -1°C° 0.2 mm 5 mps 757 mmHg 94%
    09:00 -1°C° 0.2 mm 5 mps 757 mmHg 93%
    10:00 0°C° 0.2 mm 5 mps 757 mmHg 92%
    11:00 0°C° 0.2 mm 5 mps 757 mmHg 91%
    12:00 0°C° 0.1 mm 5 mps 757 mmHg 91%
    13:00 0°C° 0.1 mm 5 mps 756 mmHg 91%
    14:00 +1°C° 0.1 mm 5 mps 756 mmHg 91%
    15:00 -1°C° 0.2 mm 6 mps 756 mmHg 92%
    16:00 -1°C° 0.2 mm 7 mps 756 mmHg 93%
    17:00 -1°C° 0.2 mm 7 mps 755 mmHg 93%
    18:00 -1°C° 0.6 mm 8 mps 755 mmHg 93%
    19:00 0°C° 0.6 mm 8 mps 755 mmHg 94%
    20:00 0°C° 0.6 mm 8 mps 755 mmHg 94%
    21:00 0°C° 0.4 mm 9 mps 755 mmHg 94%
    22:00 0°C° 0.4 mm 9 mps 755 mmHg 93%
    23:00 0°C° 0.4 mm 9 mps 754 mmHg 93%

    24 January, Thursday

    Time Temperature Precipitation Wind Pressure Humidity
    00:00 0°C° 1.5 mm 9 mps 754 mmHg 93%
    01:00 0°C° 1.5 mm 9 mps 754 mmHg 93%
    02:00 0°C° 1.5 mm 9 mps 754 mmHg 93%
    03:00 +1°C° 0.1 mm 8 mps 753 mmHg 93%
    04:00 +1°C° 0.1 mm 8 mps 753 mmHg 93%
    05:00 +2°C° 0.1 mm 7 mps 753 mmHg 93%
    06:00 +2°C° 0 mm 7 mps 753 mmHg 93%
    07:00 +2°C° 0 mm 6 mps 753 mmHg 93%
    08:00 +3°C° 0 mm 6 mps 754 mmHg 93%
    09:00 +5°C° 0 mm 5 mps 754 mmHg 91%
    10:00 +6°C° 0 mm 5 mps 754 mmHg 89%
    11:00 +7°C° 0 mm 5 mps 754 mmHg 87%
    12:00 +8°C° 0 mm 5 mps 754 mmHg 84%
    13:00 +8°C° 0 mm 5 mps 754 mmHg 82%
    14:00 +9°C° 0 mm 5 mps 754 mmHg 79%
    15:00 +8°C° 0 mm 4 mps 754 mmHg 82%
    16:00 +7°C° 0 mm 4 mps 754 mmHg 85%
    17:00 +7°C° 0 mm 3 mps 754 mmHg 88%
    18:00 +6°C° 0.3 mm 4 mps 754 mmHg 88%
    19:00 +6°C° 0.3 mm 5 mps 754 mmHg 88%
    20:00 +6°C° 0.3 mm 5 mps 754 mmHg 88%
    21:00 +5°C° 0 mm 5 mps 754 mmHg 88%
    22:00 +5°C° 0 mm 5 mps 754 mmHg 88%
    23:00 +3°C° 0 mm 5 mps 754 mmHg 88%
    Show more